Location: Newark
(44.4156°N, 12.1972°E)
Time: 09:15:27
(UTC+00:00)

STARLINK-1111 - Pass Details

Date: 02 February 2020
Orbit: 548 x 551 km, 53.0° (Epoch: 22 February)

Event Time Altitude Azimuth Distance (km) Brightness Sun altitude
Rises 18:32:27 0° 289° (WNW) 2,722 8.4 -23.6°
Reaches altitude 10° 18:35:43 10° 262° (W) 1,823 7.3 -24.2°
Maximum altitude 18:37:41 13° 233° (SW) 1,624 6.6 -24.6°
Drops below altitude 10° 18:39:39 10° 204° (SSW) 1,818 6.5 -24.9°
Enters shadow 18:41:56 - 183° (S) 2,399 6.9 -25.3°
